CDT,Max TemperatureF,Mean TemperatureF,Min TemperatureF,Max Dew PointF,MeanDew PointF,Min DewpointF,Max Humidity, Mean Humidity, Min Humidity, Max Sea Level PressureIn, Mean Sea Level PressureIn, Min Sea Level PressureIn, Max VisibilityMiles, Mean VisibilityMiles, Min VisibilityMiles, Max Wind SpeedMPH, Mean Wind SpeedMPH, Max Gust SpeedMPH,PrecipitationIn, CloudCover, Events, WindDirDegrees
2013-4-1,76,66,55,61,57,52,100,87,43,30.09,30.03,29.95,10,8,0,8,4,,0.00,3,Fog,24
2013-4-2,77,64,53,61,55,46,100,77,35,30.14,30.07,30.00,10,9,2,10,3,16,0.00,1,,101
2013-4-3,67,60,55,63,59,50,100,93,83,30.08,29.96,29.78,10,6,2,37,8,48,1.38,8,Rain-Thunderstorm,45
2013-4-4,67,59,53,57,53,48,95,85,69,30.00,29.95,29.89,10,10,6,15,7,18,0.00,8,,337
2013-4-5,69,58,49,49,47,44,84,71,45,30.14,30.07,29.99,10,10,10,16,11,23,0.00,5,,349
2013-4-6,69,58,47,55,49,43,90,68,41,30.18,30.14,30.11,10,10,10,10,4,18,0.00,0,,114
2013-4-7,73,62,52,63,57,50,94,76,56,30.15,30.08,30.03,10,10,10,10,7,,0.00,2,,120
2013-4-8,78,70,62,68,65,61,94,81,67,30.07,30.03,29.98,10,10,10,17,9,24,0.02,2,,131
2013-4-9,79,74,69,70,69,68,94,86,70,30.08,30.03,29.96,10,10,10,17,12,25,0.00,4,,131
2013-4-10,80,74,69,70,69,68,94,85,69,30.02,29.96,29.88,10,10,10,17,11,24,0.00,5,,132
2013-4-11,79,68,57,72,68,54,100,91,78,29.86,29.72,29.63,10,8,0,20,11,28,1.02,7,Fog-Rain-Thunderstorm,181
2013-4-12,75,62,51,54,48,43,94,65,33,29.99,29.91,29.83,10,10,10,14,10,20,0.00,2,,354
2013-4-13,77,64,53,58,50,45,79,60,33,30.07,29.99,29.93,10,10,10,13,7,17,0.00,1,,96
2013-4-14,68,64,58,66,59,54,100,90,68,29.93,29.84,29.76,10,6,0,30,10,39,2.22,7,Fog-Rain-Thunderstorm,53
2013-4-15,77,72,67,70,69,65,95,89,78,30.03,29.95,29.84,10,10,2,14,7,21,0.00,8,,133
2013-4-16,81,76,71,72,71,69,100,93,74,30.13,30.06,30.01,10,7,1,13,9,18,0.00,6,,137
2013-4-17,80,74,68,72,70,68,96,87,71,30.12,30.06,30.00,10,10,9,18,9,23,0.00,2,,121
2013-4-18,79,75,71,73,71,67,94,87,74,29.99,29.89,29.86,10,10,10,16,11,23,0.00,7,,154
2013-4-19,75,60,46,73,55,41,94,90,67,30.20,29.98,29.81,10,8,1,23,11,29,0.50,6,Rain-Thunderstorm,315
2013-4-20,69,56,44,45,40,35,85,57,30,30.28,30.21,30.13,10,10,10,15,7,18,0.00,0,,41
2013-4-21,72,60,48,55,47,39,86,62,30,30.22,30.18,30.13,10,10,10,14,7,16,0.00,0,,78
2013-4-22,75,64,53,64,57,49,88,77,61,30.14,30.11,30.06,10,10,10,16,8,18,0.00,3,,88
2013-4-23,77,72,67,66,64,62,89,78,65,30.13,30.07,30.04,10,10,10,15,10,22,0.00,5,,137
2013-4-24,72,68,62,68,67,61,94,90,85,30.16,30.09,30.03,10,9,2,17,8,25,0.63,6,Rain-Thunderstorm,146
2013-4-25,76,65,55,60,54,49,94,79,53,30.30,30.24,30.18,10,10,10,15,11,18,0.00,5,,24
2013-4-26,77,66,56,64,53,45,85,61,38,30.30,30.26,30.23,10,10,10,14,8,,0.00,3,,107
2013-4-27,77,69,62,69,66,62,100,85,71,30.21,30.15,30.07,10,10,8,14,6,17,0.00,0,,137
2013-4-28,77,72,66,72,68,63,95,88,78,30.08,30.03,29.97,10,10,2,13,5,,0.09,6,Rain-Thunderstorm,188
2013-4-29,79,72,65,68,66,63,93,79,63,30.00,29.96,29.91,10,10,10,12,5,,0.00,3,Thunderstorm,131
2013-4-30,78,72,66,70,68,66,96,87,69,29.96,29.92,29.88,10,9,0,20,8,24,0.43,6,Fog-Rain-Thunderstorm,109